******** Week 360 almanac for PRN-1 ******** ID: 1 Health: 0 Eccentricity: 0.001583576202 Time of Applicability(s): 233472 Orbital Inclination(rad): 0.9583209414 Rate of Right Ascen(r/s): -7.737465153e-09 SQRT(A) (m 1/2): 5153.580078 Right Ascen at Week(rad): 3.136772749 Argument of Perigee(rad): 0.08355439058 Mean Anom(rad): 0.6293916434 Af0(s): 0.0002554955933 Af1(s/s): -7.275958e-12 week: 360 ******** Week 360 almanac for PRN-2 ******** ID: 2 Health: 0 Eccentricity: 0.01690292358 Time of Applicability(s): 233472 Orbital Inclination(rad): 0.9635700319 Rate of Right Ascen(r/s): -7.657461821e-09 SQRT(A) (m 1/2): 5153.548828 Right Ascen at Week(rad): 2.974335943 Argument of Perigee(rad): -0.8116930512 Mean Anom(rad): 2.089958194 Af0(s): 3.994473877e-05 Af1(s/s): 7.275958e-12 week: 360 ******** Week 360 almanac for PRN-3 ******** ID: 3 Health: 0 Eccentricity: 0.006480693817 Time of Applicability(s): 233472 Orbital Inclination(rad): 0.9932429728 Rate of Right Ascen(r/s): -7.726036106e-09 SQRT(A) (m 1/2): 5153.581055 Right Ascen at Week(rad): -2.159667808 Argument of Perigee(rad): 1.202158199 Mean Anom(rad): -1.503862559 Af0(s): 0.0004363774292 Af1(s/s): -1.091394e-11 week: 360 ******** Week 360 almanac for PRN-4 ******** ID: 4 Health: 0 Eccentricity: 0.003718852997 Time of Applicability(s): 233472 Orbital Inclination(rad): 0.9704369928 Rate of Right Ascen(r/s): -8.171768958e-09 SQRT(A) (m 1/2): 5153.676758 Right Ascen at Week(rad): -1.088756347 Argument of Perigee(rad): -2.879514883 Mean Anom(rad): 1.478663853 Af0(s): 3.69300415e-05 Af1(s/s): 3.637979e-12 week: 360 ******** Week 360 almanac for PRN-5 ******** ID: 5 Health: 0 Eccentricity: 0.005390167236 Time of Applicability(s): 233472 Orbital Inclination(rad): 0.9798206409 Rate of Right Ascen(r/s): -7.851755628e-09 SQRT(A) (m 1/2): 5153.657227 Right Ascen at Week(rad): -2.219425273 Argument of Perigee(rad): 1.4170552 Mean Anom(rad): 2.141936024 Af0(s): -0.0001816355103 Af1(s/s): 0 week: 360 ******** Week 360 almanac for PRN-6 ******** ID: 6 Health: 0 Eccentricity: 0.003860473633 Time of Applicability(s): 233472 Orbital Inclination(rad): 0.9872029234 Rate of Right Ascen(r/s): -7.451738966e-09 SQRT(A) (m 1/2): 5153.597656 Right Ascen at Week(rad): 3.087346435 Argument of Perigee(rad): -0.5665808226 Mean Anom(rad): -0.1841290021 Af0(s): -0.0004838589111 Af1(s/s): 0 week: 360 ******** Week 360 almanac for PRN-7 ******** ID: 7 Health: 0 Eccentricity: 0.0204834938 Time of Applicability(s): 233472 Orbital Inclination(rad): 0.9514120357 Rate of Right Ascen(r/s): -7.783181343e-09 SQRT(A) (m 1/2): 5153.581055 Right Ascen at Week(rad): -0.0801396355 Argument of Perigee(rad): -1.991742602 Mean Anom(rad): -1.049077327 Af0(s): -0.0001236025879 Af1(s/s): -3.637979e-12 week: 360 ******** Week 360 almanac for PRN-8 ******** ID: 8 Health: 0 Eccentricity: 0.01157426834 Time of Applicability(s): 233472 Orbital Inclination(rad): 0.9431848653 Rate of Right Ascen(r/s): -8.434637051e-09 SQRT(A) (m 1/2): 5153.621094 Right Ascen at Week(rad): 1.967199658 Argument of Perigee(rad): 0.5239607993 Mean Anom(rad): 1.779032347 Af0(s): 0.0003821128784 Af1(s/s): -7.275958e-12 week: 360 ******** Week 360 almanac for PRN-9 ******** ID: 9 Health: 0 Eccentricity: 0.003355026245 Time of Applicability(s): 233472 Orbital Inclination(rad): 0.9645707147 Rate of Right Ascen(r/s): -8.263201338e-09 SQRT(A) (m 1/2): 5153.719727 Right Ascen at Week(rad): -1.153028869 Argument of Perigee(rad): 2.065287543 Mean Anom(rad): 2.374919843 Af0(s): 0.0006067078247 Af1(s/s): 0 week: 360 ******** Week 360 almanac for PRN-10 ******** ID: 10 Health: 0 Eccentricity: 0.01094198227 Time of Applicability(s): 233472 Orbital Inclination(rad): 0.992775588 Rate of Right Ascen(r/s): -7.760323248e-09 SQRT(A) (m 1/2): 5153.604004 Right Ascen at Week(rad): -2.162178504 Argument of Perigee(rad): -2.255310162 Mean Anom(rad): -2.49482763 Af0(s): -0.0004657707275 Af1(s/s): 0 week: 360 ******** Week 360 almanac for PRN-11 ******** ID: 11 Health: 0 Eccentricity: 0.002205848694 Time of Applicability(s): 233472 Orbital Inclination(rad): 0.9640673772 Rate of Right Ascen(r/s): -7.668890868e-09 SQRT(A) (m 1/2): 5153.53125 Right Ascen at Week(rad): 3.106111859 Argument of Perigee(rad): -2.299681381 Mean Anom(rad): 0.897495982 Af0(s): -0.0003316166992 Af1(s/s): 1.455192e-11 week: 360 ******** Week 360 almanac for PRN-12 ******** ID: 12 Health: 0 Eccentricity: 0.00902557373 Time of Applicability(s): 233472 Orbital Inclination(rad): 0.9590340028 Rate of Right Ascen(r/s): -8.023191341e-09 SQRT(A) (m 1/2): 5153.719238 Right Ascen at Week(rad): 1.037377728 Argument of Perigee(rad): 1.559701182 Mean Anom(rad): -1.707763659 Af0(s): -0.0004800905395 Af1(s/s): 0 week: 360 ******** Week 360 almanac for PRN-13 ******** ID: 13 Health: 0 Eccentricity: 0.01000833511 Time of Applicability(s): 233472 Orbital Inclination(rad): 0.9761175154 Rate of Right Ascen(r/s): -8.091765626e-09 SQRT(A) (m 1/2): 5153.618652 Right Ascen at Week(rad): -0.9778610707 Argument of Perigee(rad): 0.9961085512 Mean Anom(rad): 1.531831118 Af0(s): 0.0005411381592 Af1(s/s): 0 week: 360 ******** Week 360 almanac for PRN-14 ******** ID: 14 Health: 0 Eccentricity: 0.00671672821 Time of Applicability(s): 233472 Orbital Inclination(rad): 0.9424118828 Rate of Right Ascen(r/s): -8.183198006e-09 SQRT(A) (m 1/2): 5153.596191 Right Ascen at Week(rad): 0.9827105622 Argument of Perigee(rad): -2.749828343 Mean Anom(rad): -1.866382366 Af0(s): 0.0005825902466 Af1(s/s): 3.637979e-12 week: 360 ******** Week 360 almanac for PRN-15 ******** ID: 15 Health: 0 Eccentricity: 0.01662015915 Time of Applicability(s): 233472 Orbital Inclination(rad): 0.9424058907 Rate of Right Ascen(r/s): -8.526069431e-09 SQRT(A) (m 1/2): 5153.631836 Right Ascen at Week(rad): -1.297150408 Argument of Perigee(rad): 1.50133576 Mean Anom(rad): 0.7820882706 Af0(s): 0.0003090064697 Af1(s/s): 3.637979e-12 week: 360 ******** Week 360 almanac for PRN-16 ******** ID: 16 Health: 0 Eccentricity: 0.0150475502 Time of Applicability(s): 233472 Orbital Inclination(rad): 0.9581531623 Rate of Right Ascen(r/s): -8.068907531e-09 SQRT(A) (m 1/2): 5153.593262 Right Ascen at Week(rad): 1.054356753 Argument of Perigee(rad): 0.929441806 Mean Anom(rad): 2.806167682 Af0(s): 0.0001725914185 Af1(s/s): 7.275958e-12 week: 360 ******** Week 360 almanac for PRN-17 ******** ID: 17 Health: 0 Eccentricity: 0.01266002655 Time of Applicability(s): 233472 Orbital Inclination(rad): 0.9589141605 Rate of Right Ascen(r/s): -8.217485148e-09 SQRT(A) (m 1/2): 5153.530762 Right Ascen at Week(rad): 2.071947402 Argument of Perigee(rad): -1.122026802 Mean Anom(rad): 1.708904408 Af0(s): -6.180129394e-05 Af1(s/s): -1.091394e-11 week: 360 ******** Week 360 almanac for PRN-18 ******** ID: 18 Health: 0 Eccentricity: 0.005746364593 Time of Applicability(s): 233472 Orbital Inclination(rad): 0.9721567291 Rate of Right Ascen(r/s): -7.611745631e-09 SQRT(A) (m 1/2): 5153.596191 Right Ascen at Week(rad): 3.082304073 Argument of Perigee(rad): -2.864683656 Mean Anom(rad): -0.276148375 Af0(s): -0.0003248336304 Af1(s/s): 1.091394e-11 week: 360 ******** Week 360 almanac for PRN-19 ******** ID: 19 Health: 0 Eccentricity: 0.01112985611 Time of Applicability(s): 233472 Orbital Inclination(rad): 0.9581112175 Rate of Right Ascen(r/s): -8.206056101e-09 SQRT(A) (m 1/2): 5153.658691 Right Ascen at Week(rad): 2.115851235 Argument of Perigee(rad): 2.931479981 Mean Anom(rad): -2.759228094 Af0(s): 0.0005471675537 Af1(s/s): 0 week: 360 ******** Week 360 almanac for PRN-20 ******** ID: 20 Health: 255 Eccentricity: 0.0003185272217 Time of Applicability(s): 233472 Orbital Inclination(rad): 0.9599927408 Rate of Right Ascen(r/s): -8.331775623e-09 SQRT(A) (m 1/2): 5153.636719 Right Ascen at Week(rad): -1.147422873 Argument of Perigee(rad): 1.094670562 Mean Anom(rad): 1.455081895 Af0(s): 2.336390381e-05 Af1(s/s): 2.546585e-11 week: 360 ******** Week 360 almanac for PRN-21 ******** ID: 21 Health: 0 Eccentricity: 0.0007429122925 Time of Applicability(s): 233472 Orbital Inclination(rad): 0.9626532387 Rate of Right Ascen(r/s): -8.080336578e-09 SQRT(A) (m 1/2): 5153.711914 Right Ascen at Week(rad): -2.153444625 Argument of Perigee(rad): -0.3453917285 Mean Anom(rad): -1.982997488 Af0(s): 0.0003203115845 Af1(s/s): 3.637979e-12 week: 360 ******** Week 360 almanac for PRN-22 ******** ID: 22 Health: 0 Eccentricity: 0.01209926605 Time of Applicability(s): 233472 Orbital Inclination(rad): 0.9575899037 Rate of Right Ascen(r/s): -8.080336578e-09 SQRT(A) (m 1/2): 5153.570312 Right Ascen at Week(rad): 1.057707093 Argument of Perigee(rad): -0.9935570348 Mean Anom(rad): 2.356911298 Af0(s): -3.090064697e-05 Af1(s/s): 3.637979e-12 week: 360 ******** Week 360 almanac for PRN-23 ******** ID: 23 Health: 0 Eccentricity: 0.006033420563 Time of Applicability(s): 233472 Orbital Inclination(rad): 0.9877901504 Rate of Right Ascen(r/s): -7.760323248e-09 SQRT(A) (m 1/2): 5153.657715 Right Ascen at Week(rad): -2.194271883 Argument of Perigee(rad): -2.737775583 Mean Anom(rad): -1.411583278 Af0(s): 0.0004898883057 Af1(s/s): 3.637979e-12 week: 360 ******** Week 360 almanac for PRN-24 ******** ID: 24 Health: 0 Eccentricity: 0.01790761948 Time of Applicability(s): 233472 Orbital Inclination(rad): 0.9353831349 Rate of Right Ascen(r/s): -8.000333246e-09 SQRT(A) (m 1/2): 5153.602539 Right Ascen at Week(rad): -0.1886051101 Argument of Perigee(rad): 1.134983247 Mean Anom(rad): -0.0666749843 Af0(s): -7.762845459e-05 Af1(s/s): 1.818989e-11 week: 360 ******** Week 360 almanac for PRN-25 ******** ID: 25 Health: 0 Eccentricity: 0.01293945312 Time of Applicability(s): 233472 Orbital Inclination(rad): 0.9474632336 Rate of Right Ascen(r/s): -8.080336578e-09 SQRT(A) (m 1/2): 5153.669434 Right Ascen at Week(rad): 0.9435228958 Argument of Perigee(rad): 1.157192263 Mean Anom(rad): -1.842724757 Af0(s): 0.0003474438599 Af1(s/s): -3.637979e-12 week: 360 ******** Week 360 almanac for PRN-26 ******** ID: 26 Health: 0 Eccentricity: 0.01100826263 Time of Applicability(s): 233472 Orbital Inclination(rad): 0.9282884738 Rate of Right Ascen(r/s): -8.274630386e-09 SQRT(A) (m 1/2): 5153.660645 Right Ascen at Week(rad): 0.868961917 Argument of Perigee(rad): 0.7094095641 Mean Anom(rad): -2.663531437 Af0(s): -0.0002652933594 Af1(s/s): -7.275958e-12 week: 360 ******** Week 360 almanac for PRN-27 ******** ID: 27 Health: 0 Eccentricity: 0.01435995102 Time of Applicability(s): 233472 Orbital Inclination(rad): 0.9522988684 Rate of Right Ascen(r/s): -8.343204671e-09 SQRT(A) (m 1/2): 5153.603027 Right Ascen at Week(rad): 1.999248097 Argument of Perigee(rad): 0.8814491048 Mean Anom(rad): 1.879728673 Af0(s): -4.522045898e-05 Af1(s/s): -1.091394e-11 week: 360 ******** Week 360 almanac for PRN-28 ******** ID: 28 Health: 0 Eccentricity: 0.0004215240478 Time of Applicability(s): 233472 Orbital Inclination(rad): 0.962347641 Rate of Right Ascen(r/s): -7.703178011e-09 SQRT(A) (m 1/2): 5153.754883 Right Ascen at Week(rad): -0.1058630253 Argument of Perigee(rad): 0.01075247129 Mean Anom(rad): -0.7277454282 Af0(s): -0.0004627560303 Af1(s/s): 7.275958e-12 week: 360 ******** Week 360 almanac for PRN-29 ******** ID: 29 Health: 0 Eccentricity: 0.003370761871 Time of Applicability(s): 233472 Orbital Inclination(rad): 0.9615746585 Rate of Right Ascen(r/s): -8.171768958e-09 SQRT(A) (m 1/2): 5153.69873 Right Ascen at Week(rad): 2.088678129 Argument of Perigee(rad): 2.740073558 Mean Anom(rad): 1.745403863 Af0(s): -0.0002886572632 Af1(s/s): 7.275958e-12 week: 360 ******** Week 360 almanac for PRN-30 ******** ID: 30 Health: 0 Eccentricity: 0.008060932159 Time of Applicability(s): 233472 Orbital Inclination(rad): 0.936665447 Rate of Right Ascen(r/s): -7.943188008e-09 SQRT(A) (m 1/2): 5153.713379 Right Ascen at Week(rad): -0.08914765305 Argument of Perigee(rad): -2.318231088 Mean Anom(rad): -1.218229419 Af0(s): 0.0001107901245 Af1(s/s): 1.455192e-11 week: 360 ******** Week 360 almanac for PRN-31 ******** ID: 31 Health: 0 Eccentricity: 0.01086425781 Time of Applicability(s): 233472 Orbital Inclination(rad): 0.9551810745 Rate of Right Ascen(r/s): -7.748894201e-09 SQRT(A) (m 1/2): 5153.528809 Right Ascen at Week(rad): -0.05592438554 Argument of Perigee(rad): 0.9347568098 Mean Anom(rad): -2.145480359 Af0(s): -0.0001296319824 Af1(s/s): 3.637979e-12 week: 360 ******** Week 360 almanac for PRN-32 ******** ID: 32 Health: 0 Eccentricity: 0.009341716766 Time of Applicability(s): 233472 Orbital Inclination(rad): 0.9676206999 Rate of Right Ascen(r/s): -8.228914196e-09 SQRT(A) (m 1/2): 5153.675293 Right Ascen at Week(rad): -1.136016887 Argument of Perigee(rad): -1.998118584 Mean Anom(rad): 2.455778906 Af0(s): -5.275720215e-05 Af1(s/s): 1.818989e-11 week: 360